Year,Month,Day,Hour,Minute,Value (Times are PST for temperature in C)
2012,08,16,00,00,16.90
2012,08,16,00,01,16.90
2012,08,16,00,02,16.90
2012,08,16,00,03,16.90
2012,08,16,00,04,16.80
2012,08,16,00,05,16.80
2012,08,16,00,06,16.80
2012,08,16,00,07,16.80
2012,08,16,00,08,16.80
2012,08,16,00,09,16.80
2012,08,16,00,10,16.70
2012,08,16,00,11,16.70
2012,08,16,00,12,16.70
2012,08,16,00,13,16.70
2012,08,16,00,14,16.70
2012,08,16,00,15,16.60
2012,08,16,00,16,16.60
2012,08,16,00,17,16.60
2012,08,16,00,18,16.60
2012,08,16,00,19,16.60
2012,08,16,00,20,16.50
2012,08,16,00,21,16.50
2012,08,16,00,22,16.50
2012,08,16,00,23,16.50
2012,08,16,00,24,16.50
2012,08,16,00,25,16.40
2012,08,16,00,26,16.40
2012,08,16,00,27,16.40
2012,08,16,00,28,16.40
2012,08,16,00,29,16.40
2012,08,16,00,30,16.40
2012,08,16,00,31,16.40
2012,08,16,00,32,16.30
2012,08,16,00,33,16.30
2012,08,16,00,34,16.30
2012,08,16,00,35,16.30
2012,08,16,00,36,16.30
2012,08,16,00,37,16.30
2012,08,16,00,38,16.30
2012,08,16,00,39,16.30
2012,08,16,00,40,16.30
2012,08,16,00,41,16.30
2012,08,16,00,42,16.30
2012,08,16,00,43,16.30
2012,08,16,00,44,16.20
2012,08,16,00,45,16.20
2012,08,16,00,46,16.20
2012,08,16,00,47,16.20
2012,08,16,00,48,16.20
2012,08,16,00,49,16.20
2012,08,16,00,50,16.20
2012,08,16,00,51,16.20
2012,08,16,00,52,16.20
2012,08,16,00,53,16.10
2012,08,16,00,54,16.10
2012,08,16,00,55,16.20
2012,08,16,00,56,16.20
2012,08,16,00,57,16.10
2012,08,16,00,58,16.10
2012,08,16,00,59,16.10
2012,08,16,01,00,16.10
2012,08,16,01,01,16.10
2012,08,16,01,02,16.10
2012,08,16,01,03,16.10
2012,08,16,01,04,16.10
2012,08,16,01,05,16.10
2012,08,16,01,06,16.10
2012,08,16,01,07,16.10
2012,08,16,01,08,16.10
2012,08,16,01,09,16.10
2012,08,16,01,10,16.10
2012,08,16,01,11,16.10
2012,08,16,01,12,16.10
2012,08,16,01,13,16.10
2012,08,16,01,14,16.10
2012,08,16,01,15,16.10
2012,08,16,01,16,16.10
2012,08,16,01,17,16.10
2012,08,16,01,18,16.00
2012,08,16,01,19,16.00
2012,08,16,01,20,15.90
2012,08,16,01,21,15.90
2012,08,16,01,22,15.90
2012,08,16,01,23,15.90
2012,08,16,01,24,15.80
2012,08,16,01,25,15.80
2012,08,16,01,26,15.80
2012,08,16,01,27,15.80
2012,08,16,01,28,15.80
2012,08,16,01,29,15.70
2012,08,16,01,30,15.70
2012,08,16,01,31,15.70
2012,08,16,01,32,15.70
2012,08,16,01,33,15.70
2012,08,16,01,34,15.70
2012,08,16,01,35,15.70
2012,08,16,01,36,15.70
2012,08,16,01,37,15.80
2012,08,16,01,38,15.80
2012,08,16,01,39,15.80
2012,08,16,01,40,15.80
2012,08,16,01,41,15.80
2012,08,16,01,42,15.80
2012,08,16,01,43,15.80
2012,08,16,01,44,15.80
2012,08,16,01,45,15.80
2012,08,16,01,46,15.80
2012,08,16,01,47,15.90
2012,08,16,01,48,15.90
2012,08,16,01,49,15.90
2012,08,16,01,50,15.90
2012,08,16,01,51,15.90
2012,08,16,01,52,15.90
2012,08,16,01,53,16.00
2012,08,16,01,54,16.00
2012,08,16,01,55,16.00
2012,08,16,01,56,16.00
2012,08,16,01,57,16.00
2012,08,16,01,58,15.90
2012,08,16,01,59,15.90
2012,08,16,02,00,15.90
2012,08,16,02,01,15.90
2012,08,16,02,02,15.90
2012,08,16,02,03,15.90
2012,08,16,02,04,15.90
2012,08,16,02,05,15.90
2012,08,16,02,06,15.90
2012,08,16,02,07,15.90
2012,08,16,02,08,15.90
2012,08,16,02,09,15.90
2012,08,16,02,10,15.80
2012,08,16,02,11,15.80
2012,08,16,02,12,15.80
2012,08,16,02,13,15.80
2012,08,16,02,14,15.80
2012,08,16,02,15,15.80
2012,08,16,02,16,15.70
2012,08,16,02,17,15.70
2012,08,16,02,18,15.70
2012,08,16,02,19,15.70
2012,08,16,02,20,15.70
2012,08,16,02,21,15.70
2012,08,16,02,22,15.60
2012,08,16,02,23,15.60
2012,08,16,02,24,15.60
2012,08,16,02,25,15.60
2012,08,16,02,26,15.60
2012,08,16,02,27,15.60
2012,08,16,02,28,15.60
2012,08,16,02,29,15.60
2012,08,16,02,30,15.60
2012,08,16,02,31,15.60
2012,08,16,02,32,15.60
2012,08,16,02,33,15.60
2012,08,16,02,34,15.60
2012,08,16,02,35,15.60
2012,08,16,02,36,15.60
2012,08,16,02,37,15.60
2012,08,16,02,38,15.60
2012,08,16,02,39,15.60
2012,08,16,02,40,15.50
2012,08,16,02,41,15.50
2012,08,16,02,42,15.50
2012,08,16,02,43,15.50
2012,08,16,02,44,15.50
2012,08,16,02,45,15.50
2012,08,16,02,46,15.50
2012,08,16,02,47,15.50
2012,08,16,02,48,15.50
2012,08,16,02,49,15.50
2012,08,16,02,50,15.50
2012,08,16,02,51,15.50
2012,08,16,02,52,15.60
2012,08,16,02,53,15.50
2012,08,16,02,54,15.50
2012,08,16,02,55,15.50
2012,08,16,02,56,15.50
2012,08,16,02,57,15.50
2012,08,16,02,58,15.40
2012,08,16,02,59,15.40
2012,08,16,03,00,15.40
2012,08,16,03,01,15.40
2012,08,16,03,02,15.40
2012,08,16,03,03,15.40
2012,08,16,03,04,15.40
2012,08,16,03,05,15.40
2012,08,16,03,06,15.40
2012,08,16,03,07,15.40
2012,08,16,03,08,15.40
2012,08,16,03,09,15.40
2012,08,16,03,10,15.40
2012,08,16,03,11,15.40
2012,08,16,03,12,15.40
2012,08,16,03,13,15.40
2012,08,16,03,14,15.40
2012,08,16,03,15,15.30
2012,08,16,03,16,15.30
2012,08,16,03,17,15.30
2012,08,16,03,18,15.30
2012,08,16,03,19,15.30
2012,08,16,03,20,15.30
2012,08,16,03,21,15.30
2012,08,16,03,22,15.20
2012,08,16,03,23,15.20
2012,08,16,03,24,15.20
2012,08,16,03,25,15.20
2012,08,16,03,26,15.20
2012,08,16,03,27,15.20
2012,08,16,03,28,15.20
2012,08,16,03,29,15.20
2012,08,16,03,30,15.20
2012,08,16,03,31,15.20
2012,08,16,03,32,15.20
2012,08,16,03,33,15.20
2012,08,16,03,34,15.20
2012,08,16,03,35,15.20
2012,08,16,03,36,15.20
2012,08,16,03,37,15.20
2012,08,16,03,38,15.20
2012,08,16,03,39,15.20
2012,08,16,03,40,15.20
2012,08,16,03,41,15.20
2012,08,16,03,42,15.20
2012,08,16,03,43,15.20
2012,08,16,03,44,15.20
2012,08,16,03,45,15.20
2012,08,16,03,46,15.20
2012,08,16,03,47,15.20
2012,08,16,03,48,15.10
2012,08,16,03,49,15.10
2012,08,16,03,50,15.10
2012,08,16,03,51,15.10
2012,08,16,03,52,15.10
2012,08,16,03,53,15.10
2012,08,16,03,54,15.10
2012,08,16,03,55,15.10
2012,08,16,03,56,15.10
2012,08,16,03,57,15.10
2012,08,16,03,58,15.10
2012,08,16,03,59,15.10
2012,08,16,04,00,15.10
2012,08,16,04,01,15.00
2012,08,16,04,02,15.00
2012,08,16,04,03,15.00
2012,08,16,04,04,15.00
2012,08,16,04,05,15.00
2012,08,16,04,06,15.00
2012,08,16,04,07,14.90
2012,08,16,04,08,14.90
2012,08,16,04,09,14.90
2012,08,16,04,10,14.90
2012,08,16,04,11,14.90
2012,08,16,04,12,14.90
2012,08,16,04,13,14.90
2012,08,16,04,14,14.80
2012,08,16,04,15,14.80
2012,08,16,04,16,14.80
2012,08,16,04,17,14.80
2012,08,16,04,18,14.80
2012,08,16,04,19,14.80
2012,08,16,04,20,14.80
2012,08,16,04,21,14.80
2012,08,16,04,22,14.80
2012,08,16,04,23,14.80
2012,08,16,04,24,14.80
2012,08,16,04,25,14.80
2012,08,16,04,26,14.80
2012,08,16,04,27,14.80
2012,08,16,04,28,14.80
2012,08,16,04,29,14.80
2012,08,16,04,30,14.80
2012,08,16,04,31,14.80
2012,08,16,04,32,14.80
2012,08,16,04,33,14.80
2012,08,16,04,34,14.70
2012,08,16,04,35,14.70
2012,08,16,04,36,14.70
2012,08,16,04,37,14.70
2012,08,16,04,38,14.70
2012,08,16,04,39,14.70
2012,08,16,04,40,14.70
2012,08,16,04,41,14.70
2012,08,16,04,42,14.70
2012,08,16,04,43,14.70
2012,08,16,04,44,14.70
2012,08,16,04,45,14.70
2012,08,16,04,46,14.70
2012,08,16,04,47,14.70
2012,08,16,04,48,14.70
2012,08,16,04,49,14.70
2012,08,16,04,50,14.80
2012,08,16,04,51,14.80
2012,08,16,04,52,14.80
2012,08,16,04,53,14.80
2012,08,16,04,54,14.80
2012,08,16,04,55,14.80
2012,08,16,04,56,14.80
2012,08,16,04,57,14.80
2012,08,16,04,58,14.80
2012,08,16,04,59,14.80
2012,08,16,05,00,14.80
2012,08,16,05,01,14.80
2012,08,16,05,02,14.90
2012,08,16,05,03,14.90
2012,08,16,05,04,14.90
2012,08,16,05,05,14.90
2012,08,16,05,06,14.90
2012,08,16,05,07,14.90
2012,08,16,05,08,14.80
2012,08,16,05,09,14.80
2012,08,16,05,10,14.80
2012,08,16,05,11,14.80
2012,08,16,05,12,14.80
2012,08,16,05,13,14.80
2012,08,16,05,14,14.80
2012,08,16,05,15,14.70
2012,08,16,05,16,14.70
2012,08,16,05,17,14.70
2012,08,16,05,18,14.70
2012,08,16,05,19,14.70
2012,08,16,05,20,14.60
2012,08,16,05,21,14.60
2012,08,16,05,22,14.60
2012,08,16,05,23,14.60
2012,08,16,05,24,14.60
2012,08,16,05,25,14.60
2012,08,16,05,26,14.60
2012,08,16,05,27,14.60
2012,08,16,05,28,14.70
2012,08,16,05,29,14.70
2012,08,16,05,30,14.70
2012,08,16,05,31,14.70
2012,08,16,05,32,14.70
2012,08,16,05,33,14.70
2012,08,16,05,34,14.70
2012,08,16,05,35,14.70
2012,08,16,05,36,14.70
2012,08,16,05,37,14.70
2012,08,16,05,38,14.70
2012,08,16,05,39,14.70
2012,08,16,05,40,14.70
2012,08,16,05,41,14.80
2012,08,16,05,42,14.80
2012,08,16,05,43,14.80
2012,08,16,05,44,14.80
2012,08,16,05,45,14.80
2012,08,16,05,46,14.80
2012,08,16,05,47,14.70
2012,08,16,05,48,14.70
2012,08,16,05,49,14.70
2012,08,16,05,50,14.70
2012,08,16,05,51,14.70
2012,08,16,05,52,14.70
2012,08,16,05,53,14.70
2012,08,16,05,54,14.70
2012,08,16,05,55,14.70
2012,08,16,05,56,14.70
2012,08,16,05,57,14.70
2012,08,16,05,58,14.70
2012,08,16,05,59,14.70
2012,08,16,06,00,14.70
2012,08,16,06,01,14.70
2012,08,16,06,02,14.70
2012,08,16,06,03,14.70
2012,08,16,06,04,14.70
2012,08,16,06,05,14.60
2012,08,16,06,06,14.60
2012,08,16,06,07,14.50
2012,08,16,06,08,14.50
2012,08,16,06,09,14.40
2012,08,16,06,10,14.40
2012,08,16,06,11,14.40
2012,08,16,06,12,14.30
2012,08,16,06,13,14.30
2012,08,16,06,14,14.30
2012,08,16,06,15,14.20
2012,08,16,06,16,14.20
2012,08,16,06,17,14.20
2012,08,16,06,18,14.20
2012,08,16,06,19,14.20
2012,08,16,06,20,14.10
2012,08,16,06,21,14.10
2012,08,16,06,22,14.10
2012,08,16,06,23,14.10
2012,08,16,06,24,14.10
2012,08,16,06,25,14.10
2012,08,16,06,26,14.10
2012,08,16,06,27,14.00
2012,08,16,06,28,14.00
2012,08,16,06,29,14.00
2012,08,16,06,30,14.00
2012,08,16,06,31,14.00
2012,08,16,06,32,14.00
2012,08,16,06,33,14.00
2012,08,16,06,34,14.00
2012,08,16,06,35,14.10
2012,08,16,06,36,14.10
2012,08,16,06,37,14.10
2012,08,16,06,38,14.20
2012,08,16,06,39,14.20
2012,08,16,06,40,14.30
2012,08,16,06,41,14.30
2012,08,16,06,42,14.30
2012,08,16,06,43,14.40
2012,08,16,06,44,14.50
2012,08,16,06,45,14.50
2012,08,16,06,46,14.60
2012,08,16,06,47,14.60
2012,08,16,06,48,14.70
2012,08,16,06,49,14.70
2012,08,16,06,50,14.80
2012,08,16,06,51,14.80
2012,08,16,06,52,14.80
2012,08,16,06,53,14.90
2012,08,16,06,54,14.90
2012,08,16,06,55,15.00
2012,08,16,06,56,15.00
2012,08,16,06,57,15.10
2012,08,16,06,58,15.10
2012,08,16,06,59,15.10
2012,08,16,07,00,15.20
2012,08,16,07,01,15.20
2012,08,16,07,02,15.30
2012,08,16,07,03,15.30
2012,08,16,07,04,15.30
2012,08,16,07,05,15.40
2012,08,16,07,06,15.40
2012,08,16,07,07,15.50
2012,08,16,07,08,15.50
2012,08,16,07,09,15.60
2012,08,16,07,10,15.60
2012,08,16,07,11,15.70
2012,08,16,07,12,15.70
2012,08,16,07,13,15.70
2012,08,16,07,14,15.70
2012,08,16,07,15,15.70
2012,08,16,07,16,15.70
2012,08,16,07,17,15.70
2012,08,16,07,18,15.80
2012,08,16,07,19,15.80
2012,08,16,07,20,15.80
2012,08,16,07,21,15.80
2012,08,16,07,22,15.80
2012,08,16,07,23,15.90
2012,08,16,07,24,15.90
2012,08,16,07,25,16.00
2012,08,16,07,26,16.00
2012,08,16,07,27,16.10
2012,08,16,07,28,16.20
2012,08,16,07,29,16.20
2012,08,16,07,30,16.30
2012,08,16,07,31,16.30
2012,08,16,07,32,16.30
2012,08,16,07,33,16.40
2012,08,16,07,34,16.40
2012,08,16,07,35,16.50
2012,08,16,07,36,16.60
2012,08,16,07,37,16.60
2012,08,16,07,38,16.70
2012,08,16,07,39,16.70
2012,08,16,07,40,16.70
2012,08,16,07,41,16.70
2012,08,16,07,42,16.70
2012,08,16,07,43,16.90
2012,08,16,07,44,17.20
2012,08,16,07,45,17.30
2012,08,16,07,46,17.40
2012,08,16,07,47,17.50
2012,08,16,07,48,17.60
2012,08,16,07,49,17.70
2012,08,16,07,50,17.80
2012,08,16,07,51,17.90
2012,08,16,07,52,18.00
2012,08,16,07,53,18.10
2012,08,16,07,54,18.20
2012,08,16,07,55,18.30
2012,08,16,07,56,18.40
2012,08,16,07,57,18.50
2012,08,16,07,58,18.50
2012,08,16,07,59,18.60
2012,08,16,08,00,18.70
2012,08,16,08,01,18.70
2012,08,16,08,02,18.80
2012,08,16,08,03,18.90
2012,08,16,08,04,19.00
2012,08,16,08,05,19.10
2012,08,16,08,06,19.20
2012,08,16,08,07,19.20
2012,08,16,08,08,19.30
2012,08,16,08,09,19.30
2012,08,16,08,10,19.30
2012,08,16,08,11,19.30
2012,08,16,08,12,19.40
2012,08,16,08,13,19.40
2012,08,16,08,14,19.50
2012,08,16,08,15,19.50
2012,08,16,08,16,19.60
2012,08,16,08,17,19.70
2012,08,16,08,18,19.70
2012,08,16,08,19,19.70
2012,08,16,08,20,19.70
2012,08,16,08,21,19.70
2012,08,16,08,22,19.80
2012,08,16,08,23,19.90
2012,08,16,08,24,20.00
2012,08,16,08,25,20.00
2012,08,16,08,26,20.10
2012,08,16,08,27,20.20
2012,08,16,08,28,20.30
2012,08,16,08,29,20.40
2012,08,16,08,30,20.40
2012,08,16,08,31,20.50
2012,08,16,08,32,20.50
2012,08,16,08,33,20.60
2012,08,16,08,34,20.60
2012,08,16,08,35,20.70
2012,08,16,08,36,20.70
2012,08,16,08,37,20.70
2012,08,16,08,38,20.80
2012,08,16,08,39,20.80
2012,08,16,08,40,20.80
2012,08,16,08,41,20.90
2012,08,16,08,42,21.00
2012,08,16,08,43,21.00
2012,08,16,08,44,21.10
2012,08,16,08,45,21.20
2012,08,16,08,46,21.20
2012,08,16,08,47,21.30
2012,08,16,08,48,21.40
2012,08,16,08,49,21.50
2012,08,16,08,50,21.50
2012,08,16,08,51,21.60
2012,08,16,08,52,21.60
2012,08,16,08,53,21.70
2012,08,16,08,54,21.70
2012,08,16,08,55,21.80
2012,08,16,08,56,21.80
2012,08,16,08,57,21.90
2012,08,16,08,58,21.90
2012,08,16,08,59,22.00
2012,08,16,09,00,22.10
2012,08,16,09,01,22.10
2012,08,16,09,02,22.20
2012,08,16,09,03,22.20
2012,08,16,09,04,22.30
2012,08,16,09,05,22.30
2012,08,16,09,06,22.30
2012,08,16,09,07,22.30
2012,08,16,09,08,22.40
2012,08,16,09,09,22.40
2012,08,16,09,10,22.40
2012,08,16,09,11,22.40
2012,08,16,09,12,22.50
2012,08,16,09,13,22.50
2012,08,16,09,14,22.50
2012,08,16,09,15,22.50
2012,08,16,09,16,22.60
2012,08,16,09,17,22.60
2012,08,16,09,18,22.70
2012,08,16,09,19,22.80
2012,08,16,09,20,22.80
2012,08,16,09,21,22.90
2012,08,16,09,22,22.90
2012,08,16,09,23,22.90
2012,08,16,09,24,23.00
2012,08,16,09,25,23.00
2012,08,16,09,26,23.00
2012,08,16,09,27,23.00
2012,08,16,09,28,23.10
2012,08,16,09,29,23.10
2012,08,16,09,30,23.20
2012,08,16,09,31,23.20
2012,08,16,09,32,23.30
2012,08,16,09,33,23.40
2012,08,16,09,34,23.50
2012,08,16,09,35,23.60
2012,08,16,09,36,23.60
2012,08,16,09,37,23.70
2012,08,16,09,38,23.80
2012,08,16,09,39,23.80
2012,08,16,09,40,23.90
2012,08,16,09,41,23.90
2012,08,16,09,42,23.90
2012,08,16,09,43,23.90
2012,08,16,09,44,23.90
2012,08,16,09,45,23.90
2012,08,16,09,46,23.90
2012,08,16,09,47,23.90
2012,08,16,09,48,23.90
2012,08,16,09,49,24.00
2012,08,16,09,50,24.00
2012,08,16,09,51,24.00
2012,08,16,09,52,24.10
2012,08,16,09,53,24.20
2012,08,16,09,54,24.20
2012,08,16,09,55,24.30
2012,08,16,09,56,24.30
2012,08,16,09,57,24.30
2012,08,16,09,58,24.30
2012,08,16,09,59,24.30
2012,08,16,10,00,24.30
2012,08,16,10,01,24.30
2012,08,16,10,02,24.30
2012,08,16,10,03,24.30
2012,08,16,10,04,24.30
2012,08,16,10,05,24.30
2012,08,16,10,06,24.40
2012,08,16,10,07,24.40
2012,08,16,10,08,24.50
2012,08,16,10,09,24.60
2012,08,16,10,10,24.60
2012,08,16,10,11,24.70
2012,08,16,10,12,24.70
2012,08,16,10,13,24.70
2012,08,16,10,14,24.70
2012,08,16,10,15,24.70
2012,08,16,10,16,24.80
2012,08,16,10,17,24.80
2012,08,16,10,18,24.90
2012,08,16,10,19,25.00
2012,08,16,10,20,25.10
2012,08,16,10,21,25.10
2012,08,16,10,22,25.20
2012,08,16,10,23,25.30
2012,08,16,10,24,25.40
2012,08,16,10,25,25.50
2012,08,16,10,26,25.60
2012,08,16,10,27,25.60
2012,08,16,10,28,25.60
2012,08,16,10,29,25.60
2012,08,16,10,30,25.60
2012,08,16,10,31,25.60
2012,08,16,10,32,25.70
2012,08,16,10,33,25.70
2012,08,16,10,34,25.80
2012,08,16,10,35,25.90
2012,08,16,10,36,26.00
2012,08,16,10,37,26.00
2012,08,16,10,38,26.10
2012,08,16,10,39,26.20
2012,08,16,10,40,26.30
2012,08,16,10,41,26.40
2012,08,16,10,42,26.40
2012,08,16,10,43,26.40
2012,08,16,10,44,26.50
2012,08,16,10,45,26.60
2012,08,16,10,46,26.60
2012,08,16,10,47,26.70
2012,08,16,10,48,26.80
2012,08,16,10,49,26.80
2012,08,16,10,50,26.90
2012,08,16,10,51,27.00
2012,08,16,10,52,27.00
2012,08,16,10,53,27.00
2012,08,16,10,54,27.10
2012,08,16,10,55,27.10
2012,08,16,10,56,27.10
2012,08,16,10,57,27.10
2012,08,16,10,58,27.10
2012,08,16,10,59,27.10
2012,08,16,11,00,27.10
2012,08,16,11,01,27.10
2012,08,16,11,02,27.10
2012,08,16,11,03,27.10
2012,08,16,11,04,27.10
2012,08,16,11,05,27.00
2012,08,16,11,06,27.00
2012,08,16,11,07,26.90
2012,08,16,11,08,26.80
2012,08,16,11,09,26.80
2012,08,16,11,10,26.80
2012,08,16,11,11,26.80
2012,08,16,11,12,26.80
2012,08,16,11,13,26.80
2012,08,16,11,14,26.70
2012,08,16,11,15,26.70
2012,08,16,11,16,26.70
2012,08,16,11,17,26.70
2012,08,16,11,18,26.60
2012,08,16,11,19,26.50
2012,08,16,11,20,26.50
2012,08,16,11,21,26.40
2012,08,16,11,22,26.40
2012,08,16,11,23,26.40
2012,08,16,11,24,26.40
2012,08,16,11,25,26.50
2012,08,16,11,26,26.60
2012,08,16,11,27,26.60
2012,08,16,11,28,26.70
2012,08,16,11,29,26.70
2012,08,16,11,30,26.80
2012,08,16,11,31,26.80
2012,08,16,11,32,26.80
2012,08,16,11,33,26.90
2012,08,16,11,34,26.90
2012,08,16,11,35,27.00
2012,08,16,11,36,27.10
2012,08,16,11,37,27.10
2012,08,16,11,38,27.10
2012,08,16,11,39,27.10
2012,08,16,11,40,27.20
2012,08,16,11,41,27.30
2012,08,16,11,42,27.30
2012,08,16,11,43,27.30
2012,08,16,11,44,27.30
2012,08,16,11,45,27.30
2012,08,16,11,46,27.30
2012,08,16,11,47,27.40
2012,08,16,11,48,27.50
2012,08,16,11,49,27.50
2012,08,16,11,50,27.60
2012,08,16,11,51,27.60
2012,08,16,11,52,27.70
2012,08,16,11,53,27.80
2012,08,16,11,54,27.80
2012,08,16,11,55,27.90
2012,08,16,11,56,27.90
2012,08,16,11,57,27.90
2012,08,16,11,58,27.80
2012,08,16,11,59,27.70
2012,08,16,12,00,27.70
2012,08,16,12,01,27.70
2012,08,16,12,02,27.70
2012,08,16,12,03,27.70
2012,08,16,12,04,27.70
2012,08,16,12,05,27.60
2012,08,16,12,06,27.60
2012,08,16,12,07,27.50
2012,08,16,12,08,27.50
2012,08,16,12,09,27.50
2012,08,16,12,10,27.50
2012,08,16,12,11,27.50
2012,08,16,12,12,27.50
2012,08,16,12,13,27.50
2012,08,16,12,14,27.50
2012,08,16,12,15,27.60
2012,08,16,12,16,27.60
2012,08,16,12,17,27.60
2012,08,16,12,18,27.70
2012,08,16,12,19,27.70
2012,08,16,12,20,27.80
2012,08,16,12,21,27.90
2012,08,16,12,22,28.00
2012,08,16,12,23,28.00
2012,08,16,12,24,28.10
2012,08,16,12,25,28.10
2012,08,16,12,26,28.00
2012,08,16,12,27,27.90
2012,08,16,12,28,27.80
2012,08,16,12,29,27.70
2012,08,16,12,30,27.60
2012,08,16,12,31,27.60
2012,08,16,12,32,27.60
2012,08,16,12,33,27.60
2012,08,16,12,34,27.60
2012,08,16,12,35,27.60
2012,08,16,12,36,27.60
2012,08,16,12,37,27.60
2012,08,16,12,38,27.60
2012,08,16,12,39,27.60
2012,08,16,12,40,27.60
2012,08,16,12,41,27.50
2012,08,16,12,42,27.50
2012,08,16,12,43,27.40
2012,08,16,12,44,27.50
2012,08,16,12,45,27.50
2012,08,16,12,46,27.60
2012,08,16,12,47,27.60
2012,08,16,12,48,27.60
2012,08,16,12,49,27.60
2012,08,16,12,50,27.60
2012,08,16,12,51,27.60
2012,08,16,12,52,27.60
2012,08,16,12,53,27.60
2012,08,16,12,54,27.70
2012,08,16,12,55,27.70
2012,08,16,12,56,27.70
2012,08,16,12,57,27.80
2012,08,16,12,58,27.80
2012,08,16,12,59,27.80
2012,08,16,13,00,27.80
2012,08,16,13,01,27.80
2012,08,16,13,02,27.80
2012,08,16,13,03,27.70
2012,08,16,13,04,27.60
2012,08,16,13,05,27.50
2012,08,16,13,06,27.50
2012,08,16,13,07,27.50
2012,08,16,13,08,27.60
2012,08,16,13,09,27.60
2012,08,16,13,10,27.70
2012,08,16,13,11,27.60
2012,08,16,13,12,27.60
2012,08,16,13,13,27.60
2012,08,16,13,14,27.70
2012,08,16,13,15,27.80
2012,08,16,13,16,27.90
2012,08,16,13,17,28.00
2012,08,16,13,18,28.10
2012,08,16,13,19,28.10
2012,08,16,13,20,28.20
2012,08,16,13,21,28.20
2012,08,16,13,22,28.20
2012,08,16,13,23,28.20
2012,08,16,13,24,28.10
2012,08,16,13,25,28.10
2012,08,16,13,26,28.10
2012,08,16,13,27,28.10
2012,08,16,13,28,28.10
2012,08,16,13,29,28.10
2012,08,16,13,30,28.00
2012,08,16,13,31,28.00
2012,08,16,13,32,27.90
2012,08,16,13,33,28.00
2012,08,16,13,34,28.00
2012,08,16,13,35,28.10
2012,08,16,13,36,28.10
2012,08,16,13,37,28.10
2012,08,16,13,38,28.10
2012,08,16,13,39,28.00
2012,08,16,13,40,28.10
2012,08,16,13,41,28.10
2012,08,16,13,42,28.20
2012,08,16,13,43,28.20
2012,08,16,13,44,28.30
2012,08,16,13,45,28.30
2012,08,16,13,46,28.40
2012,08,16,13,47,28.50
2012,08,16,13,48,28.50
2012,08,16,13,49,28.50
2012,08,16,13,50,28.50
2012,08,16,13,51,28.50
2012,08,16,13,52,28.40
2012,08,16,13,53,28.30
2012,08,16,13,54,28.30
2012,08,16,13,55,28.30
2012,08,16,13,56,28.30
2012,08,16,13,57,28.30
2012,08,16,13,58,28.30
2012,08,16,13,59,28.40
2012,08,16,14,00,28.40
2012,08,16,14,01,28.40
2012,08,16,14,02,28.40
2012,08,16,14,03,28.40
2012,08,16,14,04,28.40
2012,08,16,14,05,28.40
2012,08,16,14,06,28.40
2012,08,16,14,07,28.30
2012,08,16,14,08,28.30
2012,08,16,14,09,28.30
2012,08,16,14,10,28.30
2012,08,16,14,11,28.30
2012,08,16,14,12,28.30
2012,08,16,14,13,28.30
2012,08,16,14,14,28.20
2012,08,16,14,15,28.30
2012,08,16,14,16,28.30
2012,08,16,14,17,28.30
2012,08,16,14,18,28.40
2012,08,16,14,19,28.40
2012,08,16,14,20,28.30
2012,08,16,14,21,28.30
2012,08,16,14,22,28.40
2012,08,16,14,23,28.40
2012,08,16,14,24,28.50
2012,08,16,14,25,28.50
2012,08,16,14,26,28.60
2012,08,16,14,27,28.70
2012,08,16,14,28,28.70
2012,08,16,14,29,28.80
2012,08,16,14,30,28.80
2012,08,16,14,31,28.90
2012,08,16,14,32,28.90
2012,08,16,14,33,28.90
2012,08,16,14,34,29.00
2012,08,16,14,35,29.00
2012,08,16,14,36,29.10
2012,08,16,14,37,29.10
2012,08,16,14,38,29.10
2012,08,16,14,39,29.00
2012,08,16,14,40,29.00
2012,08,16,14,41,28.90
2012,08,16,14,42,28.90
2012,08,16,14,43,28.90
2012,08,16,14,44,28.90
2012,08,16,14,45,28.90
2012,08,16,14,46,28.90
2012,08,16,14,47,28.80
2012,08,16,14,48,28.80
2012,08,16,14,49,28.70
2012,08,16,14,50,28.70
2012,08,16,14,51,28.70
2012,08,16,14,52,28.70
2012,08,16,14,53,28.80
2012,08,16,14,54,28.80
2012,08,16,14,55,28.90
2012,08,16,14,56,28.90
2012,08,16,14,57,28.90
2012,08,16,14,58,28.90
2012,08,16,14,59,28.90
2012,08,16,15,00,28.80
2012,08,16,15,01,28.90
2012,08,16,15,02,28.90
2012,08,16,15,03,28.90
2012,08,16,15,04,28.90
2012,08,16,15,05,28.90
2012,08,16,15,06,28.90
2012,08,16,15,07,29.00
2012,08,16,15,08,29.00
2012,08,16,15,09,28.90
2012,08,16,15,10,28.80
2012,08,16,15,11,28.80
2012,08,16,15,12,28.80
2012,08,16,15,13,28.80
2012,08,16,15,14,28.80
2012,08,16,15,15,28.70
2012,08,16,15,16,28.70
2012,08,16,15,17,28.80
2012,08,16,15,18,28.80
2012,08,16,15,19,28.90
2012,08,16,15,20,29.00
2012,08,16,15,21,29.00
2012,08,16,15,22,28.90
2012,08,16,15,23,28.80
2012,08,16,15,24,28.70
2012,08,16,15,25,28.70
2012,08,16,15,26,28.80
2012,08,16,15,27,28.80
2012,08,16,15,28,28.80
2012,08,16,15,29,28.70
2012,08,16,15,30,28.60
2012,08,16,15,31,28.50
2012,08,16,15,32,28.50
2012,08,16,15,33,28.40
2012,08,16,15,34,28.40
2012,08,16,15,35,28.40
2012,08,16,15,36,28.40
2012,08,16,15,37,28.40
2012,08,16,15,38,28.40
2012,08,16,15,39,28.50
2012,08,16,15,40,28.60
2012,08,16,15,41,28.60
2012,08,16,15,42,28.60
2012,08,16,15,43,28.50
2012,08,16,15,44,28.50
2012,08,16,15,45,28.40
2012,08,16,15,46,28.30
2012,08,16,15,47,28.30
2012,08,16,15,48,28.30
2012,08,16,15,49,28.30
2012,08,16,15,50,28.30
2012,08,16,15,51,28.30
2012,08,16,15,52,28.20
2012,08,16,15,53,28.10
2012,08,16,15,54,28.10
2012,08,16,15,55,28.10
2012,08,16,15,56,28.10
2012,08,16,15,57,28.10
2012,08,16,15,58,28.20
2012,08,16,15,59,28.30
2012,08,16,16,00,28.30
2012,08,16,16,01,28.40
2012,08,16,16,02,28.40
2012,08,16,16,03,28.50
2012,08,16,16,04,28.50
2012,08,16,16,05,28.40
2012,08,16,16,06,28.40
2012,08,16,16,07,28.30
2012,08,16,16,08,28.30
2012,08,16,16,09,28.30
2012,08,16,16,10,28.40
2012,08,16,16,11,28.40
2012,08,16,16,12,28.40
2012,08,16,16,13,28.40
2012,08,16,16,14,28.30
2012,08,16,16,15,28.30
2012,08,16,16,16,28.30
2012,08,16,16,17,28.30
2012,08,16,16,18,28.30
2012,08,16,16,19,28.30
2012,08,16,16,20,28.30
2012,08,16,16,21,28.30
2012,08,16,16,22,28.40
2012,08,16,16,23,28.40
2012,08,16,16,24,28.40
2012,08,16,16,25,28.40
2012,08,16,16,26,28.30
2012,08,16,16,27,28.30
2012,08,16,16,28,28.20
2012,08,16,16,29,28.20
2012,08,16,16,30,28.20
2012,08,16,16,31,28.20
2012,08,16,16,32,28.20
2012,08,16,16,33,28.10
2012,08,16,16,34,28.10
2012,08,16,16,35,28.00
2012,08,16,16,36,28.00
2012,08,16,16,37,28.00
2012,08,16,16,38,28.00
2012,08,16,16,39,28.00
2012,08,16,16,40,27.90
2012,08,16,16,41,27.90
2012,08,16,16,42,27.90
2012,08,16,16,43,27.90
2012,08,16,16,44,27.90
2012,08,16,16,45,28.00
2012,08,16,16,46,28.00
2012,08,16,16,47,28.10
2012,08,16,16,48,28.10
2012,08,16,16,49,28.10
2012,08,16,16,50,28.10
2012,08,16,16,51,28.20
2012,08,16,16,52,28.20
2012,08,16,16,53,28.10
2012,08,16,16,54,28.10
2012,08,16,16,55,28.10
2012,08,16,16,56,28.20
2012,08,16,16,57,28.20
2012,08,16,16,58,28.30
2012,08,16,16,59,28.30
2012,08,16,17,00,28.20
2012,08,16,17,01,28.20
2012,08,16,17,02,28.20
2012,08,16,17,03,28.20
2012,08,16,17,04,28.20
2012,08,16,17,05,28.20
2012,08,16,17,06,28.20
2012,08,16,17,07,28.20
2012,08,16,17,08,28.30
2012,08,16,17,09,28.30
2012,08,16,17,10,28.30
2012,08,16,17,11,28.30
2012,08,16,17,12,28.30
2012,08,16,17,13,28.30
2012,08,16,17,14,28.30
2012,08,16,17,15,28.30
2012,08,16,17,16,28.40
2012,08,16,17,17,28.40
2012,08,16,17,18,28.40
2012,08,16,17,19,28.40